Flag for U.S.A. Weather past 2 weeks in Raleigh, North Carolina, U.S.A.

Now
51 °F

Partly sunny.


Feels Like: 47 °F
Forecast: 28 / 57 °F
Wind: 10 mph from Southwest

Location: Raleigh-Durham International Airport

Current Time: Feb 1, 2015 at 12:31:08 PM

Latest Report: Feb 1, 2015 at 11:51 AM


Visibility: 10 mi

Pressure: 30.23 "Hg

Humidity: 32%

Dew point: 22 °F

Location of RaleighLocation

Historic Weather in Raleigh — Graph

°F

Raleigh temperature yesterday

Maximum temperature yesterday: 47 °F (at 2:51 PM)
Minimum temperature yesterday: 23 °F (at 5:51 AM)
Average temperature yesterday: 34 °F

Past Weeks' High & Low Weather Summary

 TemperatureHumidityPressure
High67 °F (Jan 20, 2:51 PM)93% (Jan 18, 5:02 AM)30.39 "Hg (Jan 18, 5:02 AM)
Low23 °F (Jan 29, 2:51 AM)17% (Jan 31, 12:51 PM)29.55 "Hg (Jan 24, 6:51 AM)
Average41 °F58%30.04 "Hg
* Reported Jan 17 10:51 AM — Feb 1 10:51 AM, Raleigh, Weather by CustomWeather, © 2014

Note: Actual official high and low records may vary slightly from our data, if they occured in-between our weather recording intervals... More about our weather records

Advertising

Raleigh weather history for previous 24 hours

 ConditionsComfort  
Time TempWeatherWind HumidityBarometerVisibility
10:51 AM
Feb 1
47 °FPartly sunny.9 mph39%30.27 "Hg10 mi
9:51 AM42 °FOvercast.No wind41%30.28 "Hg10 mi
8:51 AM40 °FPartly sunny.No wind45%30.30 "Hg10 mi
7:51 AM37 °FPartly sunny.3 mph50%30.28 "Hg10 mi
6:51 AM37 °FOvercast.No wind48%30.29 "Hg10 mi
5:51 AM38 °FOvercast.No wind43%30.25 "Hg10 mi
4:51 AM36 °FOvercast.No wind46%30.27 "Hg10 mi
3:51 AM36 °FOvercast.3 mph46%30.27 "Hg10 mi
2:51 AM36 °FPassing clouds.No wind44%30.27 "Hg10 mi
1:51 AM36 °FPassing clouds.No wind44%30.27 "Hg10 mi
12:51 AM34 °FPassing clouds.No wind52%30.27 "Hg10 mi
11:51 PM
Jan 31
33 °FPartly cloudy.No wind52%30.28 "Hg10 mi
10:51 PM34 °FPassing clouds.No wind44%30.29 "Hg10 mi
9:51 PM34 °FPassing clouds.No wind46%30.30 "Hg10 mi
8:51 PM33 °FPassing clouds.No wind43%30.31 "Hg10 mi
7:51 PM36 °FPassing clouds.No wind37%30.31 "Hg10 mi
6:51 PM38 °FPartly cloudy.No wind36%30.31 "Hg10 mi
5:51 PM42 °FPassing clouds.No wind25%30.30 "Hg10 mi
4:51 PM46 °FScattered clouds.3 mph20%30.29 "Hg10 mi
3:51 PM47 °FPassing clouds.5 mph19%30.29 "Hg10 mi
2:51 PM47 °FPassing clouds.8 mph19%30.31 "Hg10 mi
1:51 PM45 °FPassing clouds.5 mph17%30.32 "Hg10 mi
12:51 PM43 °FPassing clouds.6 mph17%30.34 "Hg10 mi
Weather by CustomWeather, © 2014

See weather overviewHow to use our weather pages